sat.trackr.live / text

‹ back to catalog

STARLINK-2655

NORAD 48449 · 2021-040X

PAYLOAD ACTIVE UNKNOWN

§ Identity

Operator
Country
US
Launch date
2021-05-09
Launch site
AFETR
Launch vehicle
Mass (kg)
RCS (m²)

Purposes: comms

External: N2YO · Heavens-Above · Gunter

§ Orbital elements

Epoch: 2026-09-19T23:22:17.292000Z

Period
93.95 min
Inclination
53.1610°
Eccentricity
0.0002078
Mean motion
15.32688466 rev/d
Perigee alt
466.4 km
Apogee alt
469.2 km
Semi-major
6,845.9 km
B*
1.0104e-3
RAAN
353.9198°
Arg perigee
31.2103°
Mean anomaly
328.9022°
Rev number
29,645

§ Raw data

STARLINK-26551 48449U 21040X   26262.97381125  .00032112  00000+0  10104-2 0  99962 48449  53.1610 353.9198 0002078  31.2103 328.9022 15.32688466296453

JSON: /api/v1/satellites/48449 · /tle

For live sub-satellite position, see the globe view (requires WebGL).

§ Visibility from observer

Set your observer location to see the next 7 days of passes ≥ 10°. The values pass through the URL so the page stays shareable.

No JS? Fill the form by hand. The geolocation button needs JavaScript.